Clearfield, PA

5:35 PM EDT on June 27, 2017 (GMT -0400)
Clearfield-Lawrence

Weather History for KFIG - March, 2014

Change the Weather History Date:

Sunday, March 9, 2014

  Actual Average (KDUJ) Record (KDUJ)
Temperature  
Mean Temperature 27 °F -  
Max Temperature 33 °F 41 °F 72 °F (2016)
Min Temperature 21 °F 22 °F 1 °F (1984)
Degree Days  
Heating Degree Days 38    
Moisture  
Dew Point 17 °F    
Average Humidity 64    
Maximum Humidity 85    
Minimum Humidity 48    
Precipitation  
Precipitation 0.00 in - - ()
Sea Level Pressure  
Sea Level Pressure 30.06 in    
Wind  
Wind Speed 10 mph (WNW)    
Max Wind Speed 16 mph    
Max Gust Speed 22 mph    
Visibility 10 miles    
Events      
Averages and records for this station are not official NWS values.
T = Trace of Precipitation, MM = Missing Value Source: NWS Daily Summary

Daily Weather History Graph

Daily Weather History Graph

Search for Another Location

Airport or City:

Trip Planner

Search our weather history database for the weather conditions in past years. The results will help you decide how hot, cold, wet, or windy it might be!

Date:

Astronomy

Mar. 09, 2014 Rise Set
Actual Time 7:35 AM EDT 7:13 PM EDT
Civil Twilight 7:07 AM EDT 7:41 PM EDT
Nautical Twilight 6:35 AM EDT 8:13 PM EDT
Astronomical Twilight 6:03 AM EDT 8:45 PM EDT
Moon 1:02 PM EDT (3/9) 3:01 AM EDT (3/9)
Length of Visible Light 12h 33m
Length of Day
11h 38m
First Quarter, 61% of the Moon is Illuminated
Mar 9
First Quarter
Mar 16
Full
Mar 23
Last Quarter
Mar 30
New
Apr 7
First Quarter

Hourly Weather History & Observations

Time (EDT) Temp. Windchill Dew Point Humidity Pressure Visibility Wind Dir Wind Speed Gust Speed Precip Events Conditions
12:22 AM 30.0 °F 22.4 °F 26.1 °F 85% 29.96 in 10.0 mi WNW 8.1 mph - N/A   Overcast
12:54 AM 30.0 °F 21.1 °F 24.1 °F 79% 30.00 in 10.0 mi NW 10.4 mph - N/A   Overcast
1:54 AM 28.0 °F 18.6 °F 19.9 °F 72% 30.02 in 10.0 mi NNW 10.4 mph - N/A   Mostly Cloudy
3:19 AM 27.0 °F 16.1 °F 19.9 °F 75% 29.98 in 10.0 mi NNW 12.7 mph 17.3 mph N/A   Scattered Clouds
3:54 AM 26.1 °F 17.6 °F 19.0 °F 75% 30.03 in 10.0 mi NW 8.1 mph - N/A   Partly Cloudy
4:21 AM 25.0 °F 14.8 °F 18.0 °F 75% 29.99 in 10.0 mi WNW 10.4 mph - N/A   Mostly Cloudy
4:39 AM 24.1 °F 13.1 °F 17.1 °F 75% 30.00 in 10.0 mi WNW 11.5 mph - N/A   Scattered Clouds
4:54 AM 24.1 °F 12.5 °F 17.1 °F 75% 30.06 in 10.0 mi NW 12.7 mph - N/A   Clear
5:33 AM 24.1 °F 13.1 °F 17.1 °F 75% 30.02 in 10.0 mi NW 11.5 mph - N/A   Mostly Cloudy
5:54 AM 24.1 °F 11.0 °F 16.0 °F 71% 30.08 in 10.0 mi WNW 16.1 mph - N/A   Mostly Cloudy
6:54 AM 24.1 °F 15.2 °F 15.1 °F 69% 30.09 in 10.0 mi West 8.1 mph - N/A   Overcast
7:54 AM 21.9 °F 10.4 °F 14.0 °F 72% 30.12 in 10.0 mi WNW 11.5 mph - N/A   Overcast
8:54 AM 21.9 °F 11.7 °F 14.0 °F 72% 30.15 in 10.0 mi West 9.2 mph - N/A   Mostly Cloudy
9:08 AM 23.0 °F 13.1 °F 14.0 °F 68% 30.10 in 10.0 mi West 9.2 mph - N/A   Scattered Clouds
9:54 AM 23.0 °F 11.7 °F 12.9 °F 65% 30.17 in 10.0 mi WNW 11.5 mph - N/A   Partly Cloudy
10:54 AM 24.1 °F 13.1 °F 12.9 °F 62% 30.17 in 10.0 mi WNW 11.5 mph 21.9 mph N/A   Mostly Cloudy
11:45 AM 26.1 °F 14.0 °F 14.0 °F 60% 30.13 in 10.0 mi WNW 15.0 mph - N/A   Partly Cloudy
11:54 AM 26.1 °F 15.0 °F 14.0 °F 60% 30.18 in 10.0 mi WNW 12.7 mph 21.9 mph N/A   Scattered Clouds
12:54 PM 28.9 °F 19.2 °F 14.0 °F 54% 30.15 in 10.0 mi West 11.5 mph - N/A   Clear
1:54 PM 30.0 °F 21.1 °F 14.0 °F 51% 30.12 in 10.0 mi WNW 10.4 mph 19.6 mph N/A   Clear
2:54 PM 32.0 °F 23.6 °F 14.0 °F 48% 30.09 in 10.0 mi West 10.4 mph - N/A   Clear
3:54 PM 33.1 °F 24.4 °F 15.1 °F 48% 30.07 in 10.0 mi West 11.5 mph - N/A   Clear
4:54 PM 33.1 °F 24.9 °F 15.1 °F 48% 30.06 in 10.0 mi West 10.4 mph - N/A   Clear
5:54 PM 32.0 °F 23.6 °F 15.1 °F 50% 30.05 in 10.0 mi WNW 10.4 mph - N/A   Clear
6:54 PM 32.0 °F 24.2 °F 16.0 °F 52% 30.05 in 10.0 mi West 9.2 mph - N/A   Clear
7:54 PM 30.9 °F 26.2 °F 17.1 °F 57% 30.06 in 10.0 mi WSW 4.6 mph - N/A   Clear
8:54 PM 30.0 °F 25.2 °F 16.0 °F 56% 30.04 in 10.0 mi WSW 4.6 mph - N/A   Clear
9:54 PM 28.9 °F 23.9 °F 17.1 °F 61% 30.02 in 10.0 mi SW 4.6 mph - N/A   Partly Cloudy
10:54 PM 30.0 °F 23.2 °F 18.0 °F 61% 29.99 in 10.0 mi WSW 6.9 mph - N/A   Clear
11:54 PM 28.9 °F 21.9 °F 19.0 °F 67% 29.95 in 10.0 mi SSW 6.9 mph - N/A   Partly Cloudy
12:54 AM 30.0 °F 21.7 °F 18.0 °F 61% 29.93 in 10.0 mi SSW 9.2 mph - N/A   Scattered Clouds